Hutchinson, KS

9:23 AM CDT on October 15, 2019 (GMT -0500)
Hutchinson Municipal

Weather History for KHUT - September, 2019

Change the Weather History Date:

Tuesday, September 17, 2019

  Actual Average Record
Temperature  
Mean Temperature 82 °F -  
Max Temperature 93 °F 79 °F 97 °F (2015)
Min Temperature 71 °F 53 °F 43 °F (2006)
Cooling Degree Days 17    
Growing Degree Days 32 (Base 50)    
Moisture  
Dew Point 65 °F    
Average Humidity 59    
Maximum Humidity 84    
Minimum Humidity 35    
Precipitation  
Precipitation 0.00 in - - ()
Sea Level Pressure  
Sea Level Pressure 29.89 in    
Wind  
Wind Speed 13 mph (SSE)    
Max Wind Speed 22 mph    
Max Gust Speed 32 mph    
Visibility 10 miles    
Events      
Averages and records for this station are not official NWS values.
T = Trace of Precipitation, MM = Missing Value Source: NWS Daily Summary

Daily Weather History Graph

Daily Weather History Graph

Search for Another Location

Airport or City:

Astronomy

Sep. 17, 2019 Rise Set
Actual Time 7:14 AM CDT 7:36 PM CDT
Civil Twilight 6:48 AM CDT 8:02 PM CDT
Nautical Twilight 6:17 AM CDT 8:33 PM CDT
Astronomical Twilight 5:45 AM CDT 9:05 PM CDT
Moon 9:43 PM CDT (9/17) 10:18 AM CDT (9/17)
Length of Visible Light 13h 14m
Length of Day
12h 21m
Waning Gibbous, 89% of the Moon is Illuminated
Sep 17
Waning Gibbous
Sep 21
Last Quarter
Sep 28
New
Oct 5
First Quarter
Oct 13
Full

Hourly Weather History & Observations

Time (CDT) Temp. Heat Index Dew Point Humidity Pressure Visibility Wind Dir Wind Speed Gust Speed Precip Events Conditions
12:52 AM 77.0 °F - 68.0 °F 74% 29.92 in 10.0 mi SSE 11.5 mph - N/A   Clear
1:52 AM 75.9 °F - 66.9 °F 74% 29.93 in 10.0 mi SSE 10.4 mph - N/A   Clear
2:52 AM 75.0 °F - 66.0 °F 73% 29.93 in 10.0 mi SSE 10.4 mph - N/A   Clear
4:52 AM 73.0 °F - 66.0 °F 79% 29.92 in 10.0 mi SE 8.1 mph - N/A   Clear
5:52 AM 71.1 °F - 66.0 °F 84% 29.93 in 10.0 mi SSE 5.8 mph - N/A   Clear
6:52 AM 72.0 °F - 66.0 °F 81% 29.94 in 10.0 mi SSE 6.9 mph - N/A   Clear
7:52 AM 73.0 °F - 66.0 °F 79% 29.95 in 10.0 mi SSE 8.1 mph - N/A   Clear
9:52 AM 81.0 °F 83.0 °F 66.0 °F 60% 29.94 in 10.0 mi South 13.8 mph 25.3 mph N/A   Clear
10:52 AM 84.9 °F 87.1 °F 66.0 °F 53% 29.94 in 10.0 mi South 18.4 mph 27.6 mph N/A   Clear
11:52 AM 86.0 °F 87.6 °F 64.9 °F 49% 29.93 in 10.0 mi South 13.8 mph 26.5 mph N/A   Clear
12:52 PM 91.0 °F 92.6 °F 64.0 °F 41% 29.91 in 10.0 mi South 19.6 mph 31.1 mph N/A   Clear
1:52 PM 91.0 °F 92.6 °F 64.0 °F 41% 29.89 in 10.0 mi South 20.7 mph 32.2 mph N/A   Partly Cloudy
2:52 PM 93.0 °F 93.8 °F 62.1 °F 36% 29.87 in 10.0 mi SSE 21.9 mph 31.1 mph N/A   Clear
3:52 PM 91.9 °F 91.8 °F 61.0 °F 35% 29.85 in 10.0 mi South 21.9 mph 31.1 mph N/A   Clear
4:52 PM 91.9 °F 91.8 °F 61.0 °F 35% 29.83 in 10.0 mi SSE 19.6 mph 29.9 mph N/A   Clear
5:52 PM 90.0 °F 90.3 °F 62.1 °F 39% 29.83 in 10.0 mi SSE 21.9 mph 32.2 mph N/A   Clear
6:52 PM 87.1 °F 87.8 °F 63.0 °F 44% 29.82 in 10.0 mi SSE 15.0 mph 23.0 mph N/A   Clear
7:52 PM 82.9 °F 84.4 °F 64.0 °F 53% 29.83 in 10.0 mi SSE 13.8 mph - N/A   Clear
8:52 PM 80.1 °F 81.9 °F 64.9 °F 60% 29.84 in 10.0 mi SSE 12.7 mph - N/A   Clear
9:52 PM 79.0 °F - 64.9 °F 62% 29.85 in 10.0 mi SSE 11.5 mph - N/A   Clear
10:52 PM 75.9 °F - 66.0 °F 71% 29.85 in 10.0 mi SSE 11.5 mph - N/A   Clear
11:52 PM 77.0 °F - 66.0 °F 69% 29.86 in 10.0 mi SSE 10.4 mph - N/A   Clear